Hourly Data Report for September 28, 2017

All times are specified in Local Standard Time (LST). Add 1 hour to adjust for Daylight Saving Time where and when it is observed.

COMOX A
BRITISH COLUMBIA

49°43'00.000" N
124°54'00.000" W
25.60 m
1021830
71893
YQQ

Download Data

Hourly Data (September 2017)
Hourly Data Report for September 28, 2017
Temp Definition
°C
Dew Point Temp Definition
°C
Rel Hum Definition
%
Wind Dir Definition
10's deg

Wind Spd Definition
km/h
Visibility Definition
km
Stn Press Definition
kPa
Hmdx Definition


Wind Chill Definition


Weather Definition


TIME
00:00 12.5 11.1 91   0 32.2 101.34     Clear
01:00 11.8 10.8 94   0 32.2 101.31     Clear
02:00 11.5 10.3 92   0 32.2 101.28     Clear
03:00 11.3 10.5 95   0 32.2 101.26     Clear
04:00 10.6 9.9 95   0 32.2 101.25     Clear
05:00 10.6 9.9 95   0 32.2 101.21     Clear
06:00 10.3 10.0 98 29 4 32.2 101.21     Mainly Clear
07:00 10.8 10.3 97   0 32.2 101.21     Mainly Clear
08:00 13.4 12.8 96 33 6 32.2 101.20     Mainly Clear
09:00 14.1 13.8 98 36 4 32.2 101.19     Mainly Clear
10:00 16.5 13.7 84 1 7 32.2 101.15     Clear
11:00 16.0 13.9 87 6 7 32.2 101.09     Clear
12:00 16.3 14.1 87 7 6 32.2 101.03     Clear
13:00 17.4 14.4 83 10 6 32.2 100.94     Clear
14:00 18.5 13.9 75 9 7 32.2 100.87     Clear
15:00 18.6 9.8 57 10 11 32.2 100.82     Clear
16:00 19.2 9.8 54 10 7 32.2 100.74     Mainly Clear
17:00 19.1 9.8 55 16 4 32.2 100.69     Mainly Clear
18:00 17.3 13.6 79 20 6 32.2 100.65     Mostly Cloudy
19:00 16.3 13.5 83 19 6 32.2 100.64     Mainly Clear
20:00 16.2 13.4 83 20 6 32.2 100.62     Mainly Clear
21:00 16.0 13.3 84 10 4 32.2 100.61     Mostly Cloudy
22:00 17.5 12.5 72 18 9 32.2 100.62     Mostly Cloudy
23:00 21.1 9.4 47 17 15 32.2 100.60     Mostly Cloudy

Notes on Data Quality.

Legend

  • E = Estimated
  • M = Missing
  • NA = Not Available
  • ‡ = Partner data that is not subject to review by the National Climate Archives
Date modified: